Regional Weather Roundup
Issued by NWS

Home | Current Version | Previous Version | Text Only | Print | Product List | Glossary Off
Versions: 1 2 3 4 5 6 7 8 9 10 11 12 13 14 15 16 17 18 19 20 21 22 23 24 25 26 27 28 29 30 31 32 33 34 35 36 37 38 39 40 41 42 43 44 45 46 47 48 49 50

743
ASUS43 KLOT 052208
RWRIL

ILLINOIS REGIONAL WEATHER ROUNDUP
NATIONAL WEATHER SERVICE CHICAGO/ROMEOVILLE IL
400 PM CST FRI FEB 05 2016

NOTE: "FAIR" INDICATES FEW OR NO CLOUDS BELOW 12,000 FEET WITH NO
SIGNIFICANT WEATHER AND/OR OBSTRUCTIONS TO VISIBILITY.

* THESE STATIONS ARE NOT UNDER NWS QUALITY CONTROL. THEY ALSO MAY NOT
  REPORT WEATHER SUCH AS PRECIPITATION OR FOG.

ILZ001-002-007-009-015-016-024-052300-
NORTHWEST ILLINOIS

CITY           SKY/WX    TMP DP  RH WIND       PRES   REMARKS
MOLINE         CLOUDY    32  18  56 CALM      30.36S
STERLING*      CLOUDY    30  21  69 W5        30.34F WCI  25
SAVANNA*       CLOUDY    30  19  63 W3        30.36F
$$

ILZ003-004-008-010-011-017-018-052300-
NORTH CENTRAL ILLINOIS

CITY           SKY/WX    TMP DP  RH WIND       PRES   REMARKS
ROCKFORD       CLOUDY    30  19  63 W6        30.38R WCI  24
FREEPORT*      CLOUDY    30  21  69 SW7       30.37S WCI  23
ROCHELLE*      CLOUDY    30  21  70 W8        30.38R WCI  22
DE KALB*       CLOUDY    30  22  71 W7        30.36R WCI  23
PERU*          PTSUNNY   31  24  74 NW5       30.38S WCI  26
$$

ILZ005-006-012>014-019>023-052300-
NORTHEAST ILLINOIS

CITY           SKY/WX    TMP DP  RH WIND       PRES   REMARKS
CHICAGO-OHARE  CLOUDY    32  18  56 W7        30.34R WCI  26
CHICAGO-MIDWAY CLOUDY    34  18  52 W7        30.35R WCI  28
AURORA         CLOUDY    30  22  72 W10       30.37R WCI  21
LANSING*       CLOUDY    32  22  68 W9        30.36R WCI  24
JOLIET*        PTSUNNY   31  24  74 W6        30.39R WCI  25
WAUKEGAN       CLOUDY    30  18  60 W6        30.33R WCI  24
DUPAGE AIRPORT CLOUDY    30  19  63 W9        30.35R WCI  22
KANKAKEE*      CLOUDY    30  23  75 W6        30.38S WCI  24
WHEELING       MOSUNNY   32  18  56 NW6       30.35S WCI  26
MORRIS*        CLOUDY    30  23  76 W8        30.36R WCI  22
ROMEOVILLE*    CLOUDY    30  23  75 W9        30.37R WCI  21
NORTHERLY ISL    N/A     30  24  78 E3          N/A
$$

LMZ740>746-052300-
SOUTHERN LAKE MICHIGAN

STATION/POSITION SKY/WX   TEMP    WIND        PRES    VSBY  WAVE
                          AIR SEA DIR/SP/G                  HT/PER
                          (F)     (DEG/KT/KT) (MB)    (MI)  (FT/S)
HARRISON CRIB              30      20/  6/  6   N/A
BURNHAM HARBOR             30      70/  3/  7   N/A
CALUMET HARBOR             30      30/  5/  6 1026.6R
BURNS HARBOR               30     350/  9/ 10 1028.1R
MICHIGAN CITY              30     310/ 14/ 15   N/A
$$

ILZ025>027-034>036-040-047-049-050-058-095>099-052300-
WEST-CENTRAL ILLINOIS

CITY           SKY/WX    TMP DP  RH WIND       PRES   REMARKS
QUINCY         CLOUDY    33  19  56 CALM      30.35F
GALESBURG*     PTSUNNY   30  21  69 CALM      30.36S
MACOMB*        CLOUDY    32  22  67 CALM      30.38F
JACKSONVILLE*  MOSUNNY   36  21  54 CALM      30.37S
PITTSFIELD*    CLOUDY    35  16  45 N3        30.36F
$$

ILZ028>032-037-038-041>044-048-051>054-059>061-052300-
CENTRAL ILLINOIS

CITY           SKY/WX    TMP DP  RH WIND       PRES   REMARKS
PONTIAC        CLOUDY    31  25  80 W5        30.39S WCI  26
BLOOMINGTON    MOSUNNY   32  23  69 W7        30.38R WCI  26
DECATUR        CLOUDY    34  22  61 W7        30.38S WCI  28
PEORIA         CLOUDY    31  19  61 CALM      30.38F
LACON*         CLOUDY    31  20  65 W5        30.38S WCI  26
LINCOLN*       MOSUNNY   33  24  69 CALM      30.39S
SPRINGFIELD    SUNNY     36  22  56 CALM      30.38F
TAYLORVILLE    SUNNY     34  23  64 W6        30.39S WCI  29
$$

ILZ033-039-045-046-055>057-062-063-052300-
EAST-CENTRAL ILLINOIS

CITY           SKY/WX    TMP DP  RH WIND       PRES   REMARKS
CHAMPAIGN      CLOUDY    32  23  69 NW5       30.38R WCI  27
RANTOUL*       CLOUDY    32  25  74 N6        30.38R WCI  27
MATTOON        MOSUNNY   34  22  61 NW7       30.38R WCI  28
PARIS*         CLOUDY    31  25  80 W6        30.40R WCI  25
$$

ILZ079-100>102-052300-
SOUTHWEST ILLINOIS

CITY           SKY/WX    TMP DP  RH WIND       PRES   REMARKS
ALTON          PTSUNNY   37  21  52 SW6       30.39S WCI  33
BELLEVILLE     CLOUDY    43  19  38 CALM      30.37S
CAHOKIA*       MOSUNNY   43  13  29 NW6       30.38S
SPARTA*        SUNNY     42  22  46 NW3       30.39S
$$

ILZ064>066-069>071-074>076-080>082-084>086-088>090-092>094-052300-
SOUTH-CENTRAL ILLINOIS

CITY           SKY/WX    TMP DP  RH WIND       PRES   REMARKS
CARBONDALE     CLOUDY    46  24  42 N6        30.38S
CAIRO*         MOSUNNY   48  29  48 SW5       30.37F
EFFINGHAM*     SUNNY     37  28  69 W7        30.41S WCI  32
MARION         PTSUNNY   46  27  46 N8        30.38S
MT. VERNON     SUNNY     39  21  48 W5        30.40R
CENTRALIA*     SUNNY     39  25  57 N5        30.38S
SALEM*         SUNNY     39  22  51 W6        30.39S WCI  35
METROPOLIS*    CLOUDY    48  26  41 W9        30.38S
$$

ILZ067-068-072-073-078-083-087-091-052300-
SOUTHEAST ILLINOIS

CITY           SKY/WX    TMP DP  RH WIND       PRES   REMARKS
LAWRENCEVILLE  MOSUNNY   40  25  55 NW10      30.39R
FLORA*         MOSUNNY   40  24  51 N5        30.39S
FAIRFIELD*     SUNNY     42  23  46 W5        30.38R
HARRISBURG*    MOSUNNY   46  25  43 NW9       30.38R
ROBINSON*      CLOUDY    37  22  55 NW9       30.40R WCI  30
CARMI*         CLOUDY    44  26  49 NW9       30.38R
$$

ABBREVIATIONS USED IN REMARKS
   TC - TEMPERATURE IN CELSIUS
  WCI - WIND CHILL INDEX
   HX - HEAT INDEX
  VSB - VISIBILITY
$$





USA.gov is the U.S. government's official web portal to all federal, state and local government web resources and services.